sat.trackr.live / text

‹ back to catalog

QIANFAN-103

NORAD 66045 · 2025-233N

PAYLOAD ACTIVE UNKNOWN

§ Identity

Operator
Country
PRC
Launch date
2025-10-17
Launch site
TAISC
Launch vehicle
Mass (kg)
RCS (m²)

External: N2YO · Heavens-Above · Gunter

§ Orbital elements

Epoch: 2026-05-25T03:34:42.661632Z

Period
106.59 min
Inclination
89.0026°
Eccentricity
0.0002155
Mean motion
13.51007238 rev/d
Perigee alt
1,067.0 km
Apogee alt
1,070.2 km
Semi-major
7,446.7 km
B*
1.8669e-4
RAAN
45.5224°
Arg perigee
68.3874°
Mean anomaly
291.7506°
Rev number
3,007

§ Raw data

QIANFAN-1031 66045U 25233N   26145.14910488  .00000133  00000+0  18669-3 0  99982 66045  89.0026  45.5224 0002155  68.3874 291.7506 13.51007238 30079

JSON: /api/v1/satellites/66045 · /tle

For live sub-satellite position, see the globe view (requires WebGL).

§ Visibility from observer

Set your observer location to see the next 7 days of passes ≥ 10°. The values pass through the URL so the page stays shareable.

No JS? Fill the form by hand. The geolocation button needs JavaScript.